{"data":{"norad_id":68474,"epoch":"2026-05-25T03:39:04.349088Z","epoch_age_seconds":57800,"freshness":"FRESH","line1":"1 68474U 26067BL  26145.15213367  .00001999  00000+0  20046-3 0  9998","line2":"2 68474  97.7538 103.7861 0001957  12.8992 347.2277 14.92457891  8290","mean_motion":14.92457891,"eccentricity":0.0001957,"inclination_deg":97.7538,"raan_deg":103.7861,"arg_perigee_deg":12.8992,"mean_anomaly_deg":347.2277,"bstar":0.00020046,"rev_number":829,"period_min":96.485134266344,"perigee_km":588.91069872773,"apogee_km":591.63813495628,"semimajor_km":6968.411416842,"source":"CELESTRAK","updated_at":"2026-05-25T13:38:07.849679Z"}}